Imperial, CA

6:19 PM PDT on May 23, 2017 (GMT -0700)
Imperial County

Weather History for KIPL - August, 2012

Change the Weather History Date:

Saturday, August 11, 2012

  Actual Average Record
Temperature  
Mean Temperature 100 °F -  
Max Temperature 113 °F 104 °F 113 °F (1996)
Min Temperature 87 °F 79 °F 64 °F (1949)
Cooling Degree Days 35    
Growing Degree Days 50 (Base 50)    
Moisture  
Dew Point 64 °F    
Average Humidity 34    
Maximum Humidity 61    
Minimum Humidity 17    
Precipitation  
Precipitation 0.00 in - - ()
Sea Level Pressure  
Sea Level Pressure 29.65 in    
Wind  
Wind Speed 6 mph (South)    
Max Wind Speed 10 mph    
Max Gust Speed -    
Visibility 10 miles    
Events      
Averages and records for this station are not official NWS values.
T = Trace of Precipitation, MM = Missing Value Source: NWS Daily Summary

Daily Weather History Graph

Daily Weather History Graph

Search for Another Location

Airport or City:

Trip Planner

Search our weather history database for the weather conditions in past years. The results will help you decide how hot, cold, wet, or windy it might be!

Date:

Astronomy

Aug. 11, 2012 Rise Set
Actual Time 6:03 AM PDT 7:30 PM PDT
Civil Twilight 5:37 AM PDT 7:57 PM PDT
Nautical Twilight 5:05 AM PDT 8:28 PM PDT
Astronomical Twilight 4:32 AM PDT 9:01 PM PDT
Moon 12:40 AM PDT (8/11) 3:02 PM PDT (8/11)
Length of Visible Light 14h 20m
Length of Day
13h 27m
Waning Crescent, 31% of the Moon is Illuminated
Aug 11
Waning Crescent
Aug 17
New
Aug 24
First Quarter
Aug 31
Full
Sep 8
Last Quarter

Hourly Weather History & Observations

Time (PDT) Temp. Heat Index Dew Point Humidity Pressure Visibility Wind Dir Wind Speed Gust Speed Precip Events Conditions
12:53 AM 93.9 °F 95.6 °F 64.0 °F 37% 29.63 in 10.0 mi ESE 4.6 mph - N/A   Clear
1:53 AM 93.0 °F 94.2 °F 63.0 °F 37% 29.62 in 10.0 mi SSE 4.6 mph - N/A   Clear
2:53 AM 91.9 °F 92.9 °F 63.0 °F 38% 29.62 in 10.0 mi SSE 4.6 mph - N/A   Clear
3:53 AM 91.0 °F 92.6 °F 64.0 °F 41% 29.62 in 10.0 mi East 3.5 mph - N/A   Clear
4:53 AM 88.0 °F 90.3 °F 66.0 °F 48% 29.64 in 10.0 mi ESE 5.8 mph - N/A   Clear
5:53 AM 87.1 °F 93.6 °F 72.0 °F 61% 29.69 in 10.0 mi ESE 9.2 mph - N/A   Clear
6:53 AM 89.1 °F 94.1 °F 70.0 °F 53% 29.71 in 10.0 mi SE 10.4 mph - N/A   Clear
7:53 AM 91.0 °F 96.6 °F 70.0 °F 50% 29.73 in 10.0 mi SSE 8.1 mph - N/A   Clear
8:53 AM 96.1 °F 103.5 °F 71.1 °F 44% 29.73 in 10.0 mi South 6.9 mph - N/A   Clear
9:53 AM 100.0 °F 105.6 °F 68.0 °F 35% 29.73 in 10.0 mi SSW 8.1 mph - N/A   Clear
10:53 AM 102.9 °F 109.1 °F 68.0 °F 32% 29.71 in 10.0 mi West 10.4 mph - N/A   Clear
11:53 AM 106.0 °F 110.1 °F 64.9 °F 26% 29.69 in 8.0 mi West 10.4 mph - N/A   Clear
12:53 PM 109.0 °F 112.2 °F 62.1 °F 22% 29.68 in 10.0 mi Calm Calm - N/A   Clear
1:53 PM 109.9 °F 111.9 °F 61.0 °F 20% 29.65 in 10.0 mi East 6.9 mph - N/A   Clear
2:53 PM 111.9 °F 112.3 °F 57.9 °F 17% 29.63 in 10.0 mi SE 6.9 mph - N/A   Clear
3:53 PM 113.0 °F 113.9 °F 57.9 °F 17% 29.61 in 10.0 mi Variable 3.5 mph - N/A   Clear
4:53 PM 111.0 °F 112.7 °F 60.1 °F 19% 29.60 in 10.0 mi Calm Calm - N/A   Clear
5:53 PM 111.0 °F 111.8 °F 57.9 °F 18% 29.60 in 10.0 mi Calm Calm - N/A   Clear
6:53 PM 109.0 °F 110.5 °F 60.1 °F 20% 29.60 in 10.0 mi Calm Calm - N/A   Clear
7:53 PM 105.1 °F 107.8 °F 62.1 °F 25% 29.62 in 10.0 mi WNW 3.5 mph - N/A   Clear
8:53 PM 100.0 °F 103.0 °F 64.0 °F 31% 29.64 in 10.0 mi WNW 6.9 mph - N/A   Clear
9:53 PM 96.1 °F 98.3 °F 64.0 °F 35% 29.66 in 10.0 mi WNW 6.9 mph - N/A   Clear
10:53 PM 93.0 °F 95.9 °F 66.0 °F 41% 29.65 in 8.0 mi West 5.8 mph - N/A   Clear
11:53 PM 91.9 °F 94.1 °F 64.9 °F 41% 29.65 in 10.0 mi WSW 6.9 mph - N/A   Clear